sat.trackr.live / text

‹ back to catalog

ONEWEB-0635

NORAD 56076 · 2023-043AG

PAYLOAD ACTIVE UNKNOWN

§ Identity

Operator
Country
UK
Launch date
2023-03-26
Launch site
SRILR
Launch vehicle
Mass (kg)
RCS (m²)

Purposes: comms

External: N2YO · Heavens-Above · Gunter

§ Orbital elements

Epoch: 2026-09-20T05:10:45.448320Z

Period
109.46 min
Inclination
87.8993°
Eccentricity
0.0002250
Mean motion
13.15547119 rev/d
Perigee alt
1,200.1 km
Apogee alt
1,203.5 km
Semi-major
7,579.9 km
B*
-9.8266e-5
RAAN
240.2500°
Arg perigee
85.8136°
Mean anomaly
274.3251°
Rev number
16,892

§ Raw data

ONEWEB-06351 56076U 23043AG  26263.21580380 -.00000024  00000+0 -98266-4 0  99942 56076  87.8993 240.2500 0002250  85.8136 274.3251 13.15547119168920

JSON: /api/v1/satellites/56076 · /tle

For live sub-satellite position, see the globe view (requires WebGL).

§ Visibility from observer

Set your observer location to see the next 7 days of passes ≥ 10°. The values pass through the URL so the page stays shareable.

No JS? Fill the form by hand. The geolocation button needs JavaScript.